,

(GMT )
Capri

Weather History for LIQC - October, 2012

Change the Weather History Date:

Saturday, October 27, 2012

  Actual Average Record
Temperature  
Mean Temperature 68 °F -  
Max Temperature 71 °F - - ()
Min Temperature 64 °F - - ()
Cooling Degree Days 2    
Growing Degree Days 18 (Base 50)    
Moisture  
Dew Point 64 °F    
Average Humidity 87    
Maximum Humidity 94    
Minimum Humidity 78    
Precipitation  
Precipitation 0.00 in - - ()
Sea Level Pressure  
Sea Level Pressure 29.45 in    
Wind  
Wind Speed 10 mph ()    
Max Wind Speed 21 mph    
Max Gust Speed 40 mph    
Visibility 6.3 miles    
Events Rain , Thunderstorm    
T = Trace of Precipitation, MM = Missing Value Source: Averaged Metar Reports

Daily Weather History Graph

Daily Weather History Graph

Search for Another Location

Airport or City:

Trip Planner

Search our weather history database for the weather conditions in past years. The results will help you decide how hot, cold, wet, or windy it might be!

Date:

Astronomy

Oct. 27, 2012 Rise Set
Actual Time 7:27 AM CEST 6:05 PM CEST
Civil Twilight 6:59 AM CEST 6:33 PM CEST
Nautical Twilight 6:27 AM CEST 7:05 PM CEST
Astronomical Twilight 5:55 AM CEST 7:37 PM CEST
Moon 4:43 PM CEST (10/27) 5:05 AM CEST (10/27)
Length of Visible Light 11h 34m
Length of Day
10h 38m
Waxing Gibbous, 95% of the Moon is Illuminated
Oct 27
Waxing Gibbous
Oct 29
Full
Nov 7
Last Quarter
Nov 13
New
Nov 20
First Quarter

Hourly Weather History & Observations

Time (CEST) Temp. Dew Point Humidity Pressure Visibility Wind Dir Wind Speed Gust Speed Precip Events Conditions
2:00 AM 67 °F 64 °F 86% 29.57 in 6 mi WSW 13.8 mph - -   Overcast
4:55 AM 69.8 °F 66.2 °F 88% 29.53 in - SSW 4.6 mph - N/A   Clear
5:00 AM 69 °F 66 °F 86% 29.52 in 6 mi SSW 4.6 mph - -   Partly Cloudy
5:55 AM 69.8 °F 66.2 °F 88% 29.53 in - SSW 4.6 mph - N/A   Clear
6:55 AM 71.6 °F 68.0 °F 88% 29.50 in 6.2 mi West 9.2 mph - N/A   Partly Cloudy
7:55 AM 69.8 °F 66.2 °F 88% 29.50 in 6.2 mi WSW 11.5 mph - N/A Rain Light Rain
8:00 AM 71 °F 67 °F 82% 29.49 in 12 mi WSW 11.5 mph - -   Overcast
8:55 AM 71.6 °F 68.0 °F 88% 29.50 in 6.2 mi WSW 10.4 mph - N/A Rain Light Rain
9:55 AM 66.2 °F 62.6 °F 88% 29.47 in 3.7 mi WSW 20.7 mph 40.3 mph N/A Rain Heavy Rain Showers
10:55 AM 64.4 °F 60.8 °F 88% 29.47 in 6.2 mi WSW 15.0 mph - N/A   Scattered Clouds
11:00 AM 65 °F 61 °F 83% 29.49 in 6 mi WSW 15.0 mph - -   Light Ice Pellets
11:55 AM 68.0 °F 60.8 °F 78% 29.47 in 6.2 mi WSW 13.8 mph - N/A   Scattered Clouds
12:34 PM 69.8 °F 64.4 °F 83% 29.47 in 6.2 mi WSW 13.8 mph - N/A Thunderstorm Thunderstorm
12:55 PM 69.8 °F 64.4 °F 83% 29.47 in 6.2 mi WSW 12.7 mph - N/A Thunderstorm Thunderstorm
1:55 PM 64.4 °F 60.8 °F 88% 29.44 in 6.2 mi WSW 11.5 mph - N/A Rain , Thunderstorm Light Thunderstorms and Rain
2:00 PM 64 °F 62 °F 90% 29.46 in 6 mi WSW 11.5 mph - -   Overcast
3:55 PM 64.4 °F 60.8 °F 88% 29.42 in 6.2 mi WSW 9.2 mph - N/A Rain , Thunderstorm Light Thunderstorms and Rain
4:32 PM 64.4 °F 60.8 °F 88% 29.42 in 6.2 mi WSW 6.9 mph - N/A   Mostly Cloudy
5:55 PM 68.0 °F 64.4 °F 88% 29.39 in 6.2 mi WSW 11.5 mph - N/A   Mostly Cloudy
6:55 PM 68.0 °F 64.4 °F 88% 29.39 in 6.2 mi WSW 13.8 mph - N/A   Mostly Cloudy
7:55 PM 68.0 °F 64.4 °F 88% 29.39 in 6.2 mi WSW 11.5 mph - N/A   Scattered Clouds
8:00 PM 68 °F 65 °F 85% 29.39 in 6 mi WSW 11.5 mph - -   Overcast
8:55 PM 68.0 °F 66.2 °F 94% 29.39 in 6.2 mi WSW 12.7 mph - N/A   Mostly Cloudy
9:55 PM 69.8 °F 66.2 °F 88% 29.36 in 6.2 mi WSW 15.0 mph - N/A   Mostly Cloudy
10:55 PM 68.0 °F 66.2 °F 94% 29.36 in 6.2 mi WSW 20.7 mph - N/A Thunderstorm Thunderstorm
11:00 PM 68 °F 67 °F 94% 29.36 in 6 mi WSW 20.7 mph - - Thunderstorm Thunderstorm